Time[GMT],salinity[psu](50m),sigma_t[kg/m^3](50m),conductivity[msiemens/cm](50m),temperature[C](50m)
2006-02-23 13:00,32.411,25.703,30.597,4.24
2006-02-23 14:00,32.461,25.733,30.716,4.34
2006-02-23 15:00,32.571,25.773,31.195,4.79
2006-02-23 16:00,32.597,25.773,31.381,4.98
2006-02-23 17:00,32.358,25.684,30.354,4.01
2006-02-23 18:00,32.478,25.731,30.858,4.49
2006-02-23 19:00,32.440,25.717,30.694,4.33
2006-02-23 20:00,32.420,25.706,30.638,4.28
2006-02-23 21:00,32.480,25.730,30.889,4.52
2006-02-23 22:00,32.543,25.755,31.136,4.75
2006-02-23 23:00,32.541,25.755,31.123,4.74
2006-02-24 00:00,32.357,25.679,30.387,4.05
2006-02-24 01:00,32.382,25.693,30.456,4.11
2006-02-24 02:00,32.472,25.737,30.768,4.39
2006-02-24 03:00,32.522,25.748,31.038,4.65
2006-02-24 04:00,32.345,25.686,30.239,3.88
2006-02-24 05:00,32.323,25.666,30.242,3.91
2006-02-24 06:00,32.553,25.751,31.241,4.86
2006-02-24 07:00,32.451,25.711,30.831,4.48
2006-02-24 08:00,32.388,25.692,30.508,4.16
2006-02-24 09:00,32.482,25.725,30.935,4.57
2006-02-24 10:00,32.319,25.658,30.281,3.96
2006-02-24 11:00,32.472,25.724,30.873,4.51
2006-02-24 12:00,32.454,25.716,30.808,4.45
2006-02-24 13:00,32.403,25.696,30.594,4.25
2006-02-24 14:00,32.421,25.700,30.694,4.35
2006-02-24 15:00,32.379,25.679,30.558,4.23
2006-02-24 16:00,32.321,25.651,30.355,4.05
2006-02-24 17:00,32.309,25.636,30.396,4.11
2006-02-24 18:00,32.307,25.646,30.287,3.98
2006-02-24 19:00,32.391,25.672,30.699,4.39
2006-02-24 20:00,32.335,25.646,30.505,4.21
2006-02-24 21:00,32.301,25.612,30.530,4.28
2006-02-24 22:00,32.315,25.630,30.482,4.20
2006-02-24 23:00,32.264,25.583,30.496,4.27
2006-02-25 00:00,32.290,25.605,30.515,4.27
2006-02-25 01:00,32.290,25.606,30.496,4.25
2006-02-25 02:00,32.250,25.575,30.458,4.24
2006-02-25 03:00,32.246,25.571,30.466,4.26
2006-02-25 04:00,32.255,25.574,30.508,4.30
2006-02-25 05:00,32.262,25.579,30.513,4.30
2006-02-25 06:00,32.267,25.581,30.538,4.32
2006-02-25 07:00,32.285,25.608,30.449,4.20
2006-02-25 08:00,32.344,25.632,30.688,4.42
2006-02-25 09:00,32.361,25.632,30.809,4.55
2006-02-25 10:00,32.273,25.591,30.503,4.27
2006-02-25 11:00,32.263,25.582,30.498,4.28
2006-02-25 12:00,32.267,25.588,30.481,4.25
2006-02-25 13:00,32.264,25.590,30.439,4.20
2006-02-25 14:00,32.258,25.584,30.445,4.22
2006-02-25 15:00,32.270,25.589,30.495,4.27
2006-02-25 16:00,32.281,25.597,30.514,4.28
2006-02-25 17:00,32.292,25.623,30.372,4.10
2006-02-25 18:00,32.290,25.637,30.234,3.93
2006-02-25 19:00,32.300,25.651,30.190,3.87
2006-02-25 20:00,32.299,25.652,30.182,3.86
2006-02-25 21:00,32.299,25.648,30.210,3.90
2006-02-25 22:00,32.341,25.637,30.630,4.35
2006-02-25 23:00,32.422,25.667,30.966,4.67
2006-02-26 00:00,32.402,25.651,30.955,4.68
2006-02-26 01:00,32.469,25.685,31.160,4.85
2006-02-26 02:00,32.288,25.599,30.545,4.31
2006-02-26 03:00,32.266,25.588,30.470,4.24
2006-02-26 04:00,32.271,25.595,30.447,4.21
2006-02-26 05:00,32.414,25.664,30.937,4.64
2006-02-26 06:00,32.348,25.656,30.517,4.21
2006-02-26 07:00,32.302,25.643,30.283,3.98
2006-02-26 08:00,32.308,25.651,30.252,3.94
2006-02-26 09:00,32.329,25.659,30.345,4.03
2006-02-26 10:00,32.312,25.651,30.289,3.98
2006-02-26 11:00,32.309,25.634,30.407,4.12
2006-02-26 12:00,32.305,25.622,30.477,4.21
2006-02-26 13:00,32.298,25.615,30.487,4.23
2006-02-26 14:00,32.409,25.658,30.952,4.67
2006-02-26 15:00,32.388,25.655,30.823,4.54
2006-02-26 16:00,32.377,25.672,30.606,4.29
2006-02-26 17:00,32.303,25.649,30.230,3.92
2006-02-26 18:00,32.327,25.671,30.227,3.89
2006-02-26 19:00,32.348,25.690,30.223,3.86
2006-02-26 20:00,32.357,25.694,30.266,3.90
2006-02-26 21:00,32.357,25.695,30.253,3.89
2006-02-26 22:00,32.355,25.693,30.257,3.89
2006-02-26 23:00,32.346,25.691,30.210,3.85
2006-02-27 00:00,32.322,25.669,30.211,3.87
2006-02-27 01:00,32.393,25.673,30.704,4.39
2006-02-27 02:00,32.342,25.648,30.536,4.24
2006-02-27 03:00,32.335,25.658,30.401,4.09
2006-02-27 04:00,32.347,25.670,30.386,4.06
2006-02-27 05:00,32.374,25.676,30.547,4.22
2006-02-27 06:00,32.396,25.690,30.598,4.26
2006-02-27 07:00,32.346,25.698,30.140,3.77
2006-02-27 08:00,32.353,25.701,30.175,3.80
2006-02-27 09:00,32.361,25.703,30.219,3.84
2006-02-27 10:00,32.347,25.699,30.138,3.76
2006-02-27 11:00,32.411,25.708,30.553,4.19
2006-02-27 12:00,32.378,25.695,30.415,4.06
2006-02-27 13:00,32.357,25.686,30.333,3.98
2006-02-27 14:00,32.358,25.697,30.237,3.87
2006-02-27 15:00,32.372,25.688,30.431,4.09
2006-02-27 16:00,32.366,25.699,30.288,3.92
2006-02-27 17:00,32.369,25.698,30.321,3.96
2006-02-27 18:00,32.397,25.699,30.525,4.17
2006-02-27 19:00,32.403,25.713,30.454,4.08
2006-02-27 20:00,32.390,25.704,30.433,4.07
2006-02-27 21:00,32.393,25.704,30.451,4.09
2006-02-27 22:00,32.378,25.707,30.313,3.94
2006-02-27 23:00,32.376,25.706,30.302,3.93
2006-02-28 00:00,32.354,25.703,30.164,3.79
2006-02-28 01:00,32.374,25.702,30.324,3.96
2006-02-28 02:00,32.383,25.702,30.393,4.03
2006-02-28 03:00,32.369,25.708,30.233,3.85
2006-02-28 04:00,32.388,25.706,30.402,4.03
2006-02-28 05:00,32.382,25.714,30.289,3.91
2006-02-28 06:00,32.359,25.707,30.168,3.79
2006-02-28 07:00,32.347,25.712,30.024,3.62
2006-02-28 08:00,32.367,25.712,30.181,3.79
2006-02-28 09:00,32.386,25.720,30.261,3.87
2006-02-28 10:00,32.312,25.719,29.676,3.24
2006-02-28 11:00,32.334,25.716,29.886,3.47
2006-02-28 12:00,32.321,25.725,29.693,3.25
2006-02-28 13:00,32.367,25.727,30.050,3.64
2006-02-28 14:00,32.401,25.727,30.311,3.91
2006-02-28 15:00,32.436,25.735,30.518,4.12
2006-02-28 16:00,32.421,25.733,30.416,4.02
2006-02-28 17:00,32.429,25.733,30.482,4.09
2006-02-28 18:00,32.413,25.730,30.383,3.99
2006-02-28 19:00,32.368,25.724,30.082,3.67
2006-02-28 20:00,32.332,25.713,29.896,3.49
2006-02-28 21:00,32.330,25.711,29.898,3.49
2006-02-28 22:00,32.361,25.719,30.076,3.67
2006-02-28 23:00,32.355,25.712,30.093,3.70
2006-03-01 00:00,32.370,25.719,30.147,3.75
2006-03-01 01:00,32.391,25.722,30.281,3.89
2006-03-01 02:00,32.390,25.722,30.274,3.88
2006-03-01 03:00,32.395,25.723,30.307,3.91
2006-03-01 04:00,32.393,25.720,30.311,3.92
2006-03-01 05:00,32.389,25.718,30.300,3.91
2006-03-01 06:00,32.390,25.719,30.303,3.91
2006-03-01 07:00,32.376,25.716,30.213,3.82
2006-03-01 08:00,32.362,25.708,30.176,3.79
2006-03-01 09:00,32.378,25.719,30.212,3.82
2006-03-01 10:00,32.405,25.723,30.381,3.99
2006-03-01 11:00,32.373,25.718,30.179,3.78
2006-03-01 12:00,32.360,25.713,30.120,3.73
2006-03-01 13:00,32.361,25.720,30.059,3.65
2006-03-01 14:00,32.386,25.723,30.228,3.83
2006-03-01 15:00,32.386,25.721,30.249,3.86
2006-03-01 16:00,32.393,25.722,30.295,3.90
2006-03-01 17:00,32.394,25.722,30.306,3.91
2006-03-01 18:00,32.391,25.722,30.284,3.89
2006-03-01 19:00,32.423,25.730,30.461,4.07
2006-03-01 20:00,32.441,25.733,30.573,4.18
2006-03-01 21:00,32.393,25.728,30.247,3.85
2006-03-01 22:00,32.384,25.728,30.180,3.77
2006-03-01 23:00,32.378,25.728,30.135,3.73
2006-03-02 00:00,32.397,25.727,30.290,3.89
2006-03-02 01:00,32.391,25.727,30.243,3.84
2006-03-02 02:00,32.384,25.713,30.307,3.93
2006-03-02 03:00,32.392,25.719,30.312,3.92
2006-03-02 04:00,32.403,25.727,30.329,3.93
2006-03-02 05:00,32.400,25.728,30.297,3.90
2006-03-02 06:00,32.416,25.741,30.309,3.90
2006-03-02 07:00,32.401,25.728,30.306,3.91
2006-03-02 08:00,32.401,25.731,30.282,3.88
2006-03-02 09:00,32.398,25.728,30.285,3.89
2006-03-02 10:00,32.398,25.730,30.267,3.86
2006-03-02 11:00,32.406,25.734,30.299,3.89
2006-03-02 12:00,32.396,25.729,30.263,3.86
2006-03-02 13:00,32.402,25.735,30.259,3.85
2006-03-02 14:00,32.409,25.738,30.290,3.88
2006-03-02 15:00,32.406,25.741,30.235,3.82
2006-03-02 16:00,32.404,25.741,30.220,3.80
2006-03-02 17:00,32.418,25.745,30.294,3.88
2006-03-02 18:00,32.412,25.742,30.272,3.86
2006-03-02 19:00,32.405,25.742,30.215,3.80
2006-03-02 20:00,32.403,25.740,30.219,3.80
2006-03-02 21:00,32.413,25.741,30.287,3.87
2006-03-02 22:00,32.405,25.733,30.299,3.89
2006-03-02 23:00,32.407,25.737,30.273,3.86
2006-03-03 00:00,32.392,25.734,30.185,3.77
2006-03-03 01:00,32.396,25.738,30.186,3.77
2006-03-03 02:00,32.417,25.743,30.298,3.88
2006-03-03 03:00,32.426,25.745,30.356,3.94
2006-03-03 04:00,32.425,25.745,30.347,3.93
2006-03-03 05:00,32.440,25.751,30.407,3.99
2006-03-03 06:00,32.448,25.754,30.439,4.02
2006-03-03 07:00,32.444,25.750,30.446,4.03
2006-03-03 08:00,32.439,25.753,30.390,3.97
2006-03-03 09:00,32.432,25.750,30.355,3.93
2006-03-03 10:00,32.379,25.745,29.987,3.55
2006-03-03 11:00,32.373,25.749,29.894,3.44
2006-03-03 12:00,32.367,25.745,29.892,3.45
2006-03-03 13:00,32.372,25.745,29.924,3.48
2006-03-03 14:00,32.365,25.745,29.868,3.42
2006-03-03 15:00,32.390,25.750,30.025,3.58
2006-03-03 16:00,32.411,25.752,30.175,3.74
2006-03-03 17:00,32.418,25.747,30.275,3.85
2006-03-03 18:00,32.444,25.762,30.347,3.91
2006-03-03 19:00,32.430,25.757,30.284,3.85
2006-03-03 20:00,32.423,25.761,30.197,3.76
2006-03-03 21:00,32.379,25.751,29.931,3.48
2006-03-03 22:00,32.362,25.750,29.802,3.34
2006-03-03 23:00,32.356,25.748,29.767,3.31
2006-03-04 00:00,32.342,25.743,29.700,3.24
2006-03-04 01:00,32.404,25.769,29.973,3.51
2006-03-04 02:00,32.368,25.751,29.833,3.38
2006-03-04 03:00,32.356,25.744,29.812,3.36
2006-03-04 04:00,32.365,25.750,29.826,3.37
2006-03-04 05:00,32.372,25.755,29.842,3.38
2006-03-04 06:00,32.390,25.758,29.956,3.50
2006-03-04 07:00,32.373,25.744,29.947,3.51
2006-03-04 08:00,32.380,25.758,29.873,3.41
2006-03-04 09:00,32.381,25.759,29.869,3.40
2006-03-04 10:00,32.390,25.760,29.941,3.48
2006-03-04 11:00,32.389,25.760,29.927,3.47
2006-03-04 12:00,32.394,25.768,29.893,3.42
2006-03-04 13:00,32.398,25.763,29.972,3.51
2006-03-04 14:00,32.390,25.755,29.981,3.53
2006-03-04 15:00,32.414,25.768,30.058,3.60
2006-03-04 16:00,32.402,25.767,29.966,3.50
2006-03-04 17:00,32.402,25.766,29.976,3.51
2006-03-04 18:00,32.405,25.766,30.002,3.54
2006-03-04 19:00,32.404,25.766,29.993,3.53
2006-03-04 20:00,32.411,25.770,30.017,3.55
2006-03-04 21:00,32.401,25.768,29.953,3.48
2006-03-04 22:00,32.403,25.770,29.951,3.48
2006-03-04 23:00,32.406,25.770,29.973,3.50
2006-03-05 00:00,32.419,25.773,30.060,3.60
2006-03-05 01:00,32.419,25.774,30.041,3.57
2006-03-05 02:00,32.411,25.770,30.012,3.55
2006-03-05 03:00,32.414,25.772,30.015,3.55
2006-03-05 04:00,32.412,25.772,30.007,3.54
2006-03-05 05:00,32.412,25.775,29.981,3.51
2006-03-05 06:00,32.411,25.774,29.974,3.50
2006-03-05 07:00,32.413,25.776,29.983,3.51
2006-03-05 08:00,32.419,25.778,30.008,3.53
2006-03-05 09:00,32.427,25.781,30.040,3.56
2006-03-05 10:00,32.422,25.778,30.033,3.56
2006-03-05 11:00,32.425,25.780,30.044,3.57
2006-03-05 12:00,32.425,25.777,30.067,3.60
2006-03-05 13:00,32.433,25.781,30.088,3.62
2006-03-05 14:00,32.441,25.782,30.152,3.68
2006-03-05 15:00,32.432,25.782,30.080,3.61
2006-03-05 16:00,32.430,25.781,30.069,3.60
2006-03-05 17:00,32.427,25.782,30.037,3.56
2006-03-05 18:00,32.434,25.782,30.086,3.61
2006-03-05 19:00,32.435,25.781,30.103,3.63
2006-03-05 20:00,32.439,25.783,30.123,3.65
2006-03-05 21:00,32.441,25.784,30.131,3.66
2006-03-05 22:00,32.436,25.783,30.093,3.62
2006-03-05 23:00,32.435,25.785,30.073,3.60
2006-03-06 00:00,32.429,25.780,30.074,3.60
2006-03-06 01:00,32.435,25.784,30.085,3.61
2006-03-06 02:00,32.433,25.781,30.088,3.62
2006-03-06 03:00,32.435,25.783,30.090,3.62
2006-03-06 04:00,32.442,25.785,30.129,3.65
2006-03-06 05:00,32.442,25.784,30.136,3.66
2006-03-06 06:00,32.437,25.786,30.085,3.61
2006-03-06 07:00,32.451,25.787,30.181,3.71
2006-03-06 08:00,32.446,25.783,30.180,3.71
2006-03-06 09:00,32.450,25.788,30.164,3.69
2006-03-06 10:00,32.451,25.788,30.172,3.70
2006-03-06 11:00,32.473,25.791,30.319,3.85
2006-03-06 12:00,32.472,25.794,30.286,3.81
2006-03-06 13:00,32.457,25.792,30.183,3.70
2006-03-06 14:00,32.460,25.793,30.202,3.72
2006-03-06 15:00,32.460,25.794,30.191,3.71
2006-03-06 16:00,32.460,25.793,30.195,3.72
2006-03-06 17:00,32.464,25.795,30.212,3.73
2006-03-06 18:00,32.468,25.796,30.237,3.76
2006-03-06 19:00,32.470,25.796,30.255,3.78
2006-03-06 20:00,32.474,25.797,30.274,3.80
2006-03-06 21:00,32.509,25.805,30.476,4.00
2006-03-06 22:00,32.476,25.796,30.298,3.82
2006-03-06 23:00,32.476,25.796,30.295,3.82
2006-03-07 00:00,32.472,25.796,30.269,3.79
2006-03-07 01:00,32.469,25.794,30.257,3.78
2006-03-07 02:00,32.467,25.796,30.229,3.75
2006-03-07 03:00,32.464,25.795,30.218,3.74
2006-03-07 04:00,32.465,25.795,30.223,3.74
2006-03-07 05:00,32.474,25.796,30.285,3.81
2006-03-07 06:00,32.480,25.798,30.318,3.84
2006-03-07 07:00,32.488,25.798,30.376,3.90
2006-03-07 08:00,32.491,25.802,30.357,3.88
2006-03-07 09:00,32.491,25.795,30.424,3.96
2006-03-07 10:00,32.501,25.802,30.444,3.97
2006-03-07 11:00,32.497,25.802,30.404,3.93
2006-03-07 12:00,32.487,25.799,30.353,3.88
2006-03-07 13:00,32.480,25.799,30.302,3.82
2006-03-07 14:00,32.470,25.796,30.248,3.77
2006-03-07 15:00,32.465,25.798,30.197,3.71
2006-03-07 16:00,32.466,25.799,30.190,3.70
2006-03-07 17:00,32.467,25.798,30.213,3.73
2006-03-07 18:00,32.472,25.798,30.247,3.77
2006-03-07 19:00,32.498,25.801,30.425,3.95
2006-03-07 20:00,32.489,25.801,30.355,3.88
2006-03-07 21:00,32.492,25.802,30.368,3.89
2006-03-07 22:00,32.497,25.804,30.396,3.92
2006-03-07 23:00,32.492,25.801,30.382,3.91
2006-03-08 00:00,32.479,25.783,30.434,3.98
2006-03-08 01:00,32.482,25.806,30.257,3.77
2006-03-08 02:00,32.467,25.799,30.204,3.72
2006-03-08 03:00,32.463,25.798,30.175,3.69
2006-03-08 04:00,32.475,25.799,30.272,3.79
2006-03-08 05:00,32.484,25.798,30.343,3.87
2006-03-08 06:00,32.488,25.806,30.301,3.81
2006-03-08 07:00,32.465,25.798,30.190,3.70
2006-03-08 08:00,32.475,25.800,30.253,3.77
2006-03-08 09:00,32.497,25.804,30.395,3.92
2006-03-08 10:00,32.496,25.803,30.392,3.91
2006-03-08 11:00,32.495,25.803,30.385,3.91
2006-03-08 12:00,32.485,25.802,30.318,3.84
2006-03-08 13:00,32.490,25.802,30.354,3.88
2006-03-08 14:00,32.483,25.799,30.320,3.84
2006-03-08 15:00,32.466,25.798,30.200,3.72
2006-03-08 16:00,32.463,25.795,30.205,3.72
2006-03-08 17:00,32.461,25.795,30.188,3.71
2006-03-08 18:00,32.459,25.792,30.204,3.73
2006-03-08 19:00,32.461,25.794,30.195,3.71
2006-03-08 20:00,32.460,25.794,30.185,3.70
2006-03-08 21:00,32.466,25.797,30.208,3.72
2006-03-08 22:00,32.468,25.798,30.225,3.74
2006-03-08 23:00,32.480,25.799,30.305,3.83
2006-03-09 00:00,32.476,25.799,30.274,3.79
2006-03-09 01:00,32.475,25.803,30.234,3.75
2006-03-09 02:00,32.459,25.793,30.185,3.70
2006-03-09 03:00,32.454,25.791,30.172,3.69
2006-03-09 04:00,32.439,25.786,30.093,3.62
2006-03-09 05:00,32.427,25.782,30.032,3.55
2006-03-09 06:00,32.426,25.782,30.027,3.55
2006-03-09 07:00,32.426,25.782,30.029,3.55
2006-03-09 08:00,32.429,25.784,30.032,3.55
2006-03-09 09:00,32.426,25.782,30.028,3.55
2006-03-09 10:00,32.440,25.786,30.106,3.63
2006-03-09 11:00,32.443,25.788,30.102,3.62
2006-03-09 12:00,32.444,25.790,30.101,3.62
2006-03-09 13:00,32.430,25.782,30.059,3.58
2006-03-09 14:00,32.427,25.782,30.036,3.56
2006-03-09 15:00,32.424,25.780,30.028,3.55
2006-03-09 16:00,32.382,25.757,29.899,3.44
2006-03-09 17:00,32.385,25.765,29.848,3.38
2006-03-09 18:00,32.410,25.777,29.941,3.46
2006-03-09 19:00,32.411,25.775,29.968,3.49
2006-03-09 20:00,32.414,25.776,29.983,3.51
2006-03-09 21:00,32.400,25.770,29.926,3.45
2006-03-09 22:00,32.412,25.775,29.978,3.50
2006-03-09 23:00,32.394,25.772,29.853,3.37
2006-03-10 00:00,32.421,25.779,30.018,3.54
2006-03-10 01:00,32.394,25.771,29.872,3.39
2006-03-10 02:00,32.386,25.768,29.824,3.35
2006-03-10 03:00,32.394,25.770,29.879,3.40
2006-03-10 04:00,32.379,25.764,29.805,3.33
2006-03-10 05:00,32.385,25.766,29.833,3.36
2006-03-10 06:00,32.383,25.765,29.829,3.36
2006-03-10 07:00,32.384,25.766,29.828,3.35
2006-03-10 08:00,32.381,25.765,29.815,3.34
2006-03-10 09:00,32.380,25.765,29.810,3.34
2006-03-10 10:00,32.381,25.765,29.820,3.35
2006-03-10 11:00,32.385,25.766,29.833,3.36
2006-03-10 12:00,32.389,25.768,29.857,3.38
2006-03-10 13:00,32.387,25.767,29.844,3.37
2006-03-10 14:00,32.387,25.768,29.840,3.36
2006-03-10 15:00,32.388,25.767,29.848,3.37
2006-03-10 16:00,32.385,25.766,29.840,3.37
2006-03-10 17:00,32.385,25.767,29.836,3.36
2006-03-10 18:00,32.389,25.767,29.867,3.39
2006-03-10 19:00,32.388,25.767,29.854,3.38
2006-03-10 20:00,32.384,25.764,29.849,3.38
2006-03-10 21:00,32.387,25.765,29.863,3.39
2006-03-10 22:00,32.386,25.763,29.868,3.40
2006-03-10 23:00,32.386,25.765,29.858,3.39
2006-03-11 00:00,32.383,25.764,29.846,3.38
2006-03-11 01:00,32.384,25.764,29.848,3.38
2006-03-11 02:00,32.386,25.764,29.863,3.39
2006-03-11 03:00,32.386,25.764,29.864,3.39
2006-03-11 04:00,32.379,25.762,29.832,3.36
2006-03-11 05:00,32.364,25.758,29.747,3.28
2006-03-11 06:00,32.360,25.754,29.747,3.28
2006-03-11 07:00,32.350,25.741,29.779,3.33
2006-03-11 08:00,32.347,25.738,29.785,3.34
2006-03-11 09:00,32.352,25.742,29.783,3.33
2006-03-11 10:00,32.356,25.743,29.815,3.37
2006-03-11 11:00,32.361,25.754,29.753,3.29
2006-03-11 12:00,32.363,25.756,29.756,3.29
2006-03-11 13:00,32.363,25.757,29.747,3.28
2006-03-11 14:00,32.363,25.755,29.754,3.29
2006-03-11 15:00,32.362,25.755,29.753,3.28
2006-03-11 16:00,32.348,25.741,29.766,3.31
2006-03-11 17:00,32.342,25.733,29.788,3.35
2006-03-11 18:00,32.336,25.722,29.843,3.42
2006-03-11 19:00,32.355,25.729,29.928,3.50
2006-03-11 20:00,32.350,25.727,29.913,3.49
2006-03-11 21:00,32.352,25.728,29.920,3.49
2006-03-11 22:00,32.354,25.732,29.900,3.47
2006-03-11 23:00,32.350,25.730,29.890,3.46
2006-03-12 00:00,32.342,25.731,29.811,3.37
2006-03-12 01:00,32.343,25.727,29.853,3.42
2006-03-12 02:00,32.344,25.734,29.800,3.36
2006-03-12 03:00,32.344,25.735,29.797,3.36
2006-03-12 04:00,32.346,25.730,29.855,3.42
2006-03-12 05:00,32.359,25.726,29.995,3.58
2006-03-12 06:00,32.390,25.759,29.944,3.49
2006-03-12 07:00,32.373,25.736,30.021,3.60
2006-03-12 08:00,32.379,25.745,29.984,3.55
2006-03-12 09:00,32.370,25.736,29.997,3.57
2006-03-12 10:00,32.359,25.751,29.760,3.30
2006-03-12 11:00,32.370,25.760,29.777,3.31
2006-03-12 12:00,32.363,25.752,29.786,3.32
2006-03-12 13:00,32.359,25.748,29.796,3.34
2006-03-12 14:00,32.365,25.756,29.773,3.31
2006-03-12 15:00,32.365,25.753,29.800,3.34
2006-03-12 16:00,32.362,25.751,29.789,3.33
2006-03-12 17:00,32.362,25.749,29.812,3.36
2006-03-12 18:00,32.363,25.749,29.816,3.36
2006-03-12 19:00,32.364,25.744,29.868,3.42
2006-03-12 20:00,32.376,25.758,29.834,3.37
2006-03-12 21:00,32.376,25.751,29.903,3.45
2006-03-12 22:00,32.380,25.749,29.962,3.52
2006-03-12 23:00,32.420,25.772,30.069,3.61
2006-03-13 00:00,32.380,25.759,29.866,3.40
2006-03-13 01:00,32.383,25.758,29.897,3.44
2006-03-13 02:00,32.388,25.763,29.895,3.43
2006-03-13 03:00,32.439,25.778,30.166,3.70
2006-03-13 04:00,32.392,25.755,29.996,3.55
2006-03-13 05:00,32.412,25.768,30.038,3.58
2006-03-13 06:00,32.400,25.765,29.964,3.50
2006-03-13 07:00,32.396,25.761,29.977,3.52
2006-03-13 08:00,32.396,25.763,29.955,3.49
2006-03-13 09:00,32.411,25.768,30.038,3.58
2006-03-13 10:00,32.394,25.761,29.955,3.49
2006-03-13 11:00,32.395,25.767,29.913,3.44
2006-03-13 12:00,32.396,25.765,29.936,3.47
2006-03-13 13:00,32.405,25.766,30.003,3.54
2006-03-13 14:00,32.389,25.751,30.007,3.56
2006-03-13 15:00,32.396,25.756,30.019,3.57
2006-03-13 16:00,32.402,25.766,29.978,3.51
2006-03-13 17:00,32.383,25.751,29.961,3.51
2006-03-13 18:00,32.381,25.747,29.983,3.54
2006-03-13 19:00,32.388,25.759,29.923,3.46
2006-03-13 20:00,32.386,25.757,29.931,3.47
2006-03-13 21:00,32.383,25.754,29.935,3.48
2006-03-13 22:00,32.383,25.754,29.934,3.48
2006-03-13 23:00,32.387,25.757,29.935,3.48
2006-03-14 00:00,32.391,25.755,29.992,3.54
2006-03-14 01:00,32.377,25.745,29.965,3.52
2006-03-14 02:00,32.413,25.766,30.069,3.61
2006-03-14 03:00,32.413,25.766,30.070,3.61
2006-03-14 04:00,32.417,25.767,30.090,3.63
2006-03-14 05:00,32.390,25.756,29.969,3.52
2006-03-14 06:00,32.414,25.770,30.039,3.58
2006-03-14 07:00,32.378,25.745,29.969,3.53
2006-03-14 08:00,32.374,25.737,30.015,3.59
2006-03-14 09:00,32.390,25.760,29.943,3.48
2006-03-14 10:00,32.404,25.768,29.978,3.51
2006-03-14 11:00,32.392,25.760,29.954,3.50
2006-03-14 12:00,32.380,25.746,29.980,3.54
2006-03-14 13:00,32.408,25.768,30.012,3.55
2006-03-14 14:00,32.411,25.767,30.042,3.58
2006-03-14 15:00,32.396,25.754,30.036,3.59
2006-03-14 16:00,32.400,25.758,30.034,3.58
2006-03-14 17:00,32.389,25.749,30.031,3.59
2006-03-14 18:00,32.382,25.744,30.016,3.58
2006-03-14 19:00,32.388,25.753,29.982,3.53
2006-03-14 20:00,32.400,25.765,29.971,3.51
2006-03-14 21:00,32.394,25.760,29.964,3.51
2006-03-14 22:00,32.408,25.767,30.023,3.56
2006-03-14 23:00,32.402,25.758,30.047,3.60
2006-03-15 00:00,32.401,25.752,30.092,3.65
2006-03-15 01:00,32.378,25.739,30.032,3.60
2006-03-15 02:00,32.376,25.735,30.045,3.62
2006-03-15 03:00,32.380,25.742,30.022,3.59
2006-03-15 04:00,32.387,25.751,29.994,3.55
2006-03-15 05:00,32.384,25.749,29.992,3.55
2006-03-15 06:00,32.377,25.737,30.036,3.61
2006-03-15 07:00,32.384,25.733,30.128,3.71
2006-03-15 08:00,32.382,25.735,30.095,3.67
2006-03-15 09:00,32.385,25.726,30.202,3.80
2006-03-15 10:00,32.407,25.746,30.196,3.77
2006-03-15 11:00,32.396,25.744,30.129,3.70
2006-03-15 12:00,32.407,25.749,30.176,3.75
2006-03-15 13:00,32.408,25.752,30.156,3.72
2006-03-15 14:00,32.398,25.742,30.162,3.74
2006-03-15 15:00,32.403,25.742,30.206,3.79
2006-03-15 16:00,32.384,25.729,30.165,3.76
2006-03-15 17:00,32.416,25.746,30.270,3.85
2006-03-15 18:00,32.384,25.728,30.175,3.77
2006-03-15 19:00,32.399,25.742,30.171,3.75
2006-03-15 20:00,32.400,25.742,30.172,3.75
2006-03-15 21:00,32.410,25.754,30.149,3.71
2006-03-15 22:00,32.404,25.749,30.149,3.72
2006-03-15 23:00,32.344,25.709,30.025,3.63
2006-03-16 00:00,32.325,25.700,29.956,3.57
2006-03-16 01:00,32.317,25.695,29.938,3.55
2006-03-16 02:00,32.314,25.687,29.986,3.61
2006-03-16 03:00,32.324,25.689,30.047,3.67
2006-03-16 04:00,32.380,25.729,30.136,3.73
2006-03-16 05:00,32.388,25.736,30.133,3.71
2006-03-16 06:00,32.395,25.741,30.151,3.73
2006-03-16 07:00,32.402,25.740,30.203,3.78
2006-03-16 08:00,32.356,25.717,30.052,3.65
2006-03-16 09:00,32.352,25.722,29.969,3.55
2006-03-16 10:00,32.392,25.744,30.099,3.67
2006-03-16 11:00,32.321,25.710,29.837,3.43
2006-03-16 12:00,32.320,25.705,29.871,3.47
2006-03-16 13:00,32.337,25.717,29.902,3.49
2006-03-16 14:00,32.338,25.714,29.928,3.52
2006-03-16 15:00,32.349,25.719,29.979,3.57
2006-03-16 16:00,32.357,25.719,30.042,3.64
2006-03-16 17:00,32.352,25.716,30.031,3.63
2006-03-16 18:00,32.365,25.723,30.066,3.66
2006-03-16 19:00,32.373,25.735,30.026,3.60
2006-03-16 20:00,32.352,25.724,29.957,3.54
2006-03-16 21:00,32.369,25.736,29.987,3.56
2006-03-16 22:00,32.341,25.728,29.836,3.40
2006-03-16 23:00,32.373,25.739,29.993,3.56
2006-03-17 00:00,32.351,25.731,29.885,3.45
2006-03-17 01:00,32.339,25.725,29.843,3.42
2006-03-17 02:00,32.344,25.722,29.917,3.50
2006-03-17 03:00,32.361,25.726,30.017,3.60
2006-03-17 04:00,32.356,25.721,30.008,3.60
2006-03-17 05:00,32.356,25.722,30.012,3.60
2006-03-17 06:00,32.367,25.734,29.993,3.57
2006-03-17 07:00,32.371,25.735,30.011,3.59
2006-03-17 08:00,32.372,25.736,30.013,3.59
2006-03-17 09:00,32.341,25.724,29.870,3.45
2006-03-17 10:00,32.369,25.743,29.919,3.48
2006-03-17 11:00,32.370,25.743,29.930,3.49
2006-03-17 12:00,32.342,25.716,29.945,3.54
2006-03-17 13:00,32.345,25.721,29.931,3.52
2006-03-17 14:00,32.345,25.723,29.910,3.49
2006-03-17 15:00,32.347,25.724,29.920,3.50
2006-03-17 16:00,32.375,25.737,30.021,3.59
2006-03-17 17:00,32.367,25.734,29.987,3.56
2006-03-17 18:00,32.350,25.726,29.922,3.50
2006-03-17 19:00,32.393,25.749,30.060,3.62
2006-03-17 20:00,32.346,25.724,29.912,3.49
2006-03-17 21:00,32.345,25.723,29.910,3.49
2006-03-17 22:00,32.349,25.723,29.938,3.52
2006-03-17 23:00,32.347,25.720,29.953,3.54
2006-03-18 00:00,32.428,25.759,30.254,3.82
2006-03-18 01:00,32.478,25.785,30.410,3.95
2006-03-18 02:00,32.436,25.767,30.245,3.80
2006-03-18 03:00,32.351,25.723,29.953,3.54